When you browse on this site, cookies collect data to enhance your experience and personalize the content and advertising you see.
Visit our Privacy Policy to learn more. By continuing to use the site, you agree to this use of cookies and data.
  • In United Kingdom
  • List of Countries
  • For 7 days
  • Water Temperature
  • Satellite Maps
  • Weather Map
  • Weather Widgets
  • user-avatar
    Login

    Hourly Weather Luneville

    Today, 19 April, Friday

    Time Temperature Precipitation Wind Pressure Humidity
    00:00 +12°C° 0 mm 2 mps 745 mmHg 83%
    01:00 +10°C° 0 mm 2 mps 746 mmHg 84%
    02:00 +10°C° 0 mm 2 mps 746 mmHg 85%
    03:00 +9°C° 0 mm 2 mps 746 mmHg 86%
    04:00 +10°C° 0 mm 2 mps 746 mmHg 85%
    05:00 +10°C° 0 mm 2 mps 747 mmHg 85%
    06:00 +10°C° 0 mm 2 mps 747 mmHg 85%
    07:00 +14°C° 0 mm 1 mps 747 mmHg 78%
    08:00 +16°C° 0 mm 1 mps 747 mmHg 71%
    09:00 +20°C° 0 mm 1 mps 748 mmHg 65%
    10:00 +21°C° 0 mm 1 mps 748 mmHg 61%
    11:00 +22°C° 0 mm 1 mps 748 mmHg 58%
    12:00 +23°C° 0 mm 1 mps 748 mmHg 55%
    13:00 +23°C° 0 mm 1 mps 748 mmHg 55%
    14:00 +23°C° 0 mm 1 mps 748 mmHg 55%
    15:00 +23°C° 0 mm 1 mps 748 mmHg 55%
    16:00 +21°C° 0.3 mm 2 mps 748 mmHg 61%
    17:00 +19°C° 0.3 mm 2 mps 748 mmHg 68%
    18:00 +17°C° 0.3 mm 2 mps 748 mmHg 74%
    19:00 +16°C° 0.1 mm 2 mps 748 mmHg 77%
    20:00 +15°C° 0.1 mm 2 mps 748 mmHg 79%
    21:00 +13°C° 0.1 mm 1 mps 748 mmHg 82%
    22:00 +13°C° 0 mm 1 mps 748 mmHg 83%
    23:00 +12°C° 0 mm 1 mps 748 mmHg 84%

    Tomorrow, 20 April, Saturday

    Time Temperature Precipitation Wind Pressure Humidity
    00:00 +12°C° 0 mm 1 mps 748 mmHg 85%
    01:00 +11°C° 0 mm 1 mps 748 mmHg 86%
    02:00 +10°C° 0 mm 2 mps 748 mmHg 86%
    03:00 +10°C° 0 mm 2 mps 748 mmHg 87%
    04:00 +10°C° 0 mm 2 mps 748 mmHg 86%
    05:00 +10°C° 0 mm 2 mps 748 mmHg 85%
    06:00 +12°C° 0 mm 1 mps 748 mmHg 85%
    07:00 +14°C° 0 mm 2 mps 748 mmHg 79%
    08:00 +16°C° 0 mm 2 mps 748 mmHg 74%
    09:00 +18°C° 0 mm 3 mps 748 mmHg 69%
    10:00 +19°C° 0 mm 3 mps 748 mmHg 66%
    11:00 +20°C° 0 mm 4 mps 748 mmHg 63%
    12:00 +21°C° 0 mm 4 mps 748 mmHg 60%
    13:00 +21°C° 0 mm 4 mps 747 mmHg 60%
    14:00 +21°C° 0 mm 5 mps 747 mmHg 60%
    15:00 +21°C° 0 mm 5 mps 747 mmHg 60%
    16:00 +20°C° 0 mm 4 mps 747 mmHg 65%
    17:00 +18°C° 0 mm 4 mps 746 mmHg 70%
    18:00 +17°C° 0 mm 3 mps 746 mmHg 75%
    19:00 +16°C° 0 mm 3 mps 746 mmHg 73%
    20:00 +13°C° 0 mm 3 mps 746 mmHg 72%
    21:00 +12°C° 0 mm 3 mps 746 mmHg 70%
    22:00 +11°C° 0 mm 3 mps 746 mmHg 71%
    23:00 +11°C° 0 mm 3 mps 746 mmHg 72%

    Day after tomorrow, 21 April, Sunday

    Time Temperature Precipitation Wind Pressure Humidity
    00:00 +10°C° 0 mm 2 mps 746 mmHg 73%
    01:00 +9°C° 0 mm 3 mps 746 mmHg 75%
    02:00 +9°C° 0 mm 3 mps 745 mmHg 77%
    03:00 +8°C° 0 mm 3 mps 745 mmHg 80%
    04:00 +9°C° 0 mm 3 mps 745 mmHg 80%
    05:00 +9°C° 0 mm 3 mps 745 mmHg 80%
    06:00 +9°C° 0 mm 3 mps 745 mmHg 80%
    07:00 +12°C° 0 mm 3 mps 744 mmHg 74%
    08:00 +14°C° 0 mm 4 mps 744 mmHg 67%
    09:00 +17°C° 0 mm 4 mps 744 mmHg 61%
    10:00 +19°C° 0 mm 4 mps 743 mmHg 58%
    11:00 +20°C° 0 mm 5 mps 743 mmHg 55%
    12:00 +21°C° 0 mm 5 mps 743 mmHg 52%
    13:00 +21°C° 0 mm 5 mps 742 mmHg 53%
    14:00 +21°C° 0 mm 5 mps 742 mmHg 55%
    15:00 +21°C° 0 mm 5 mps 741 mmHg 56%
    16:00 +20°C° 0 mm 4 mps 741 mmHg 61%
    17:00 +18°C° 0 mm 4 mps 740 mmHg 66%
    18:00 +16°C° 0 mm 3 mps 740 mmHg 70%
    19:00 +14°C° 0 mm 3 mps 740 mmHg 71%
    20:00 +13°C° 0 mm 3 mps 740 mmHg 72%
    21:00 +11°C° 0 mm 3 mps 740 mmHg 73%
    22:00 +12°C° 0 mm 2 mps 739 mmHg 75%
    23:00 +10°C° 0 mm 2 mps 739 mmHg 77%

    22 April, Monday

    Time Temperature Precipitation Wind Pressure Humidity
    00:00 +9°C° 0 mm 2 mps 739 mmHg 78%
    01:00 +9°C° 0 mm 2 mps 738 mmHg 79%
    02:00 +8°C° 0 mm 2 mps 738 mmHg 81%
    03:00 +9°C° 0 mm 1 mps 737 mmHg 82%
    04:00 +8°C° 0 mm 2 mps 737 mmHg 82%
    05:00 +9°C° 0 mm 2 mps 736 mmHg 81%
    06:00 +9°C° 0 mm 2 mps 736 mmHg 81%
    07:00 +13°C° 0 mm 2 mps 735 mmHg 76%
    08:00 +14°C° 0 mm 3 mps 735 mmHg 70%
    09:00 +17°C° 0 mm 4 mps 735 mmHg 65%
    10:00 +18°C° 0 mm 4 mps 734 mmHg 62%
    11:00 +19°C° 0 mm 4 mps 733 mmHg 60%
    12:00 +21°C° 0 mm 5 mps 733 mmHg 58%
    13:00 +21°C° 0 mm 5 mps 732 mmHg 58%
    14:00 +21°C° 0 mm 5 mps 731 mmHg 59%
    15:00 +21°C° 0 mm 5 mps 731 mmHg 59%
    16:00 +20°C° 0 mm 5 mps 730 mmHg 64%
    17:00 +18°C° 0 mm 4 mps 730 mmHg 68%
    18:00 +17°C° 0 mm 4 mps 729 mmHg 73%
    19:00 +15°C° 0 mm 4 mps 729 mmHg 70%
    20:00 +14°C° 0 mm 4 mps 729 mmHg 68%
    21:00 +14°C° 0 mm 4 mps 729 mmHg 66%
    22:00 +13°C° 0 mm 4 mps 729 mmHg 69%
    23:00 +12°C° 0 mm 4 mps 728 mmHg 72%

    23 April, Tuesday

    Time Temperature Precipitation Wind Pressure Humidity
    00:00 +11°C° 0 mm 3 mps 728 mmHg 75%
    01:00 +10°C° 0 mm 3 mps 728 mmHg 79%
    02:00 +9°C° 0 mm 3 mps 728 mmHg 83%
    03:00 +8°C° 0 mm 3 mps 728 mmHg 87%
    04:00 +9°C° 0 mm 3 mps 728 mmHg 87%
    05:00 +9°C° 0 mm 2 mps 728 mmHg 87%
    06:00 +9°C° 0 mm 2 mps 727 mmHg 87%
    07:00 +13°C° 0 mm 2 mps 728 mmHg 82%
    08:00 +15°C° 0 mm 1 mps 728 mmHg 77%
    09:00 +18°C° 0 mm 1 mps 728 mmHg 72%
    10:00 +19°C° 0 mm 1 mps 728 mmHg 69%
    11:00 +20°C° 0 mm 1 mps 728 mmHg 65%
    12:00 +22°C° 0 mm 1 mps 728 mmHg 62%
    13:00 +22°C° 0.1 mm 1 mps 728 mmHg 63%
    14:00 +22°C° 0.1 mm 1 mps 728 mmHg 63%
    15:00 +22°C° 0.1 mm 1 mps 728 mmHg 63%
    16:00 +21°C° 0.2 mm 1 mps 728 mmHg 69%
    17:00 +20°C° 0.2 mm 1 mps 728 mmHg 75%
    18:00 +18°C° 0.2 mm 1 mps 728 mmHg 80%
    19:00 +18°C° 0.2 mm 1 mps 729 mmHg 83%
    20:00 +16°C° 0.2 mm 2 mps 730 mmHg 86%
    21:00 +15°C° 0.2 mm 2 mps 731 mmHg 88%
    22:00 +14°C° 0 mm 2 mps 731 mmHg 88%
    23:00 +13°C° 0 mm 3 mps 731 mmHg 87%

    24 April, Wednesday

    Time Temperature Precipitation Wind Pressure Humidity
    00:00 +13°C° 0 mm 3 mps 732 mmHg 86%
    01:00 +13°C° 0 mm 4 mps 732 mmHg 86%
    02:00 +13°C° 0 mm 4 mps 733 mmHg 86%
    03:00 +12°C° 0 mm 5 mps 733 mmHg 85%
    04:00 +13°C° 0 mm 5 mps 734 mmHg 85%
    05:00 +13°C° 0 mm 4 mps 734 mmHg 85%
    06:00 +13°C° 0 mm 4 mps 734 mmHg 85%
    07:00 +15°C° 0 mm 5 mps 735 mmHg 79%
    08:00 +16°C° 0 mm 6 mps 735 mmHg 73%
    09:00 +19°C° 0 mm 6 mps 736 mmHg 66%
    10:00 +20°C° 0 mm 6 mps 736 mmHg 64%
    11:00 +21°C° 0 mm 5 mps 736 mmHg 62%
    12:00 +21°C° 0 mm 4 mps 737 mmHg 60%
    13:00 +20°C° 0.1 mm 3 mps 737 mmHg 67%
    14:00 +19°C° 0.1 mm 2 mps 737 mmHg 73%
    15:00 +19°C° 0.1 mm 1 mps 737 mmHg 79%
    16:00 +19°C° 0.1 mm 1 mps 736 mmHg 82%
    17:00 +18°C° 0.1 mm 1 mps 736 mmHg 85%
    18:00 +16°C° 0.1 mm 1 mps 736 mmHg 87%
    19:00 +15°C° 0 mm 1 mps 736 mmHg 89%
    20:00 +14°C° 0 mm 1 mps 736 mmHg 90%
    21:00 +14°C° 0 mm 1 mps 736 mmHg 92%
    22:00 +13°C° 0 mm 1 mps 735 mmHg 91%
    23:00 +13°C° 0 mm 1 mps 735 mmHg 91%
    Show more